McKean County Weather on FaceBook
Temperatures and Conditions from around the state of pennsylvania

NOAA NWS Hourly Roundups by Site

Regional Weather Roundup for State College, PA

To Select Another Site Choose from List

Select Site:  

000
ASUS41 KCTP 240510
RWRCTP

REGIONAL WEATHER ROUNDUP
NATIONAL WEATHER SERVICE STATE COLLEGE PA
100 AM EDT WED JUL 24 2019

Note: "fair" indicates few or no clouds below 12,000 feet with no
significant weather and/or obstructions to visibility.

* = STATION THAT DOES NOT REPORT PRECIPITATION /E.G. RAIN...SNOW...ETC/
    THUNDER OR FOG.

PAZ002>004-007>009-013>016-020>023-029>032-240600-
WESTERN PENNSYLVANIA

CITY           SKY/WX    TMP DP  RH WIND       PRES   REMARKS
ERIE           CLOUDY    72  51  47 N6        29.99S
MEADVILLE      FAIR      60  53  77 CALM      30.02R
FRANKLIN*      FAIR      55  52  89 SW3       30.02S
NEW CASTLE     MOCLDY    55  55 100 CALM      30.02S FOG
BEAVER COUNTY  FAIR      60  52  76 W3        30.02S
BUTLER*        FAIR      57  53  86 CALM      30.02S
PITTSBURGH INT FAIR      60  52  74 W6        30.01S
PITTSBURGH     FAIR      63  51  65 NW6       30.00F
INDIANA*       CLEAR     59  57  94 CALM      30.04S
LATROBE        FAIR      59  59 100 CALM      30.01S
WASHINGTON CO* FAIR      57  55  93 S3        30.04F
$$

PAZ004>006-010>012-017>019-024>028-033>037-041-042-045-046-049>053-240600-
CENTRAL PENNSYLVANIA

CITY           SKY/WX    TMP DP  RH WIND       PRES   REMARKS
BRADFORD       MOCLDY    56  54  93 NW3       30.02S
DUBOIS         FAIR      60  50  69 N6        30.00F
CLEARFIELD     MOCLDY    60  58  92 CALM      30.00R
JOHNSTOWN      FAIR      61  54  77 N6        30.01F
ALTOONA        FAIR      60  57  89 CALM      29.99F
STATE COLLEGE  CLOUDY    60  59  97 CALM      29.97F
WILLIAMSPORT   FAIR      62  60  93 W9        29.94S
SELINSGROVE    FAIR      62  60  93 NW3       29.94S
FT INDIANTOWN  FAIR      65  64  94 N5        29.92R
CAPITAL CITY   FAIR      68  63  84 CALM      29.92R
HARRISBURG     MOCLDY    69  64  84 CALM      29.91R
YORK           FAIR      64  64 100 W3        29.92R
$$

PAZ038>040-043-044-047-048-054-055-060>062-067>071-240600-
EASTERN PENNSYLVANIA

CITY           SKY/WX    TMP DP  RH WIND       PRES   REMARKS
SCRANTON       FAIR      63  59  87 E5        29.93F
MOUNT POCONO   FAIR      58  58 100 CALM      29.96S
ALLENTOWN      FAIR      66  62  87 CALM      29.91F
QUAKERTOWN*    PTCLDY    66  66 100 CALM      29.92S
READING        FAIR      67  66  97 CALM      29.90S
LANCASTER      FAIR      69  65  86 CALM      29.91S
COATESVILLE    FAIR      64  64 100 N3        29.93S
POTTSTOWN      FAIR      64  64 100 CALM      29.93S
BLUE BELL      CLOUDY    64  59  83 CALM      29.91S
DOYLESTOWN     MOCLDY    65  62  90 CALM      29.91S
WILLOW GROVE   NOT AVBL
NORTH PHILA    LGT RAIN  66  60  81 N3        29.90F
PHILADELPHIA   LGT RAIN  66  57  72 N5        29.90R
$$



 

View Past Reports for State College, PA.

Products Courtesy of NOAA-NWS
NWS Information Parsing Script by Ken True at Saratoga Weather - Script by SE Lincoln Weather.